Regional Weather Roundup
Issued by NWS

Home | Current Version | Previous Version | Text Only | Print | Product List | Glossary Off
Versions: 1 2 3 4 5 6 7 8 9 10 11 12 13 14 15 16 17 18 19 20 21 22 23 24 25 26 27 28 29 30 31 32 33 34 35 36 37 38 39 40 41 42 43 44 45 46 47 48 49 50

000
ASUS45 KCYS 230310
RWRWY

WYOMING REGIONAL WEATHER ROUNDUP
NATIONAL WEATHER SERVICE CHEYENNE WY
900 PM MDT TUE JUL 22 2014

NOTE:  "FAIR" INDICATES FEW OR NO CLOUDS BELOW 12,000 FEET
WITH NO SIGNIFICANT WEATHER AND/OR OBSTRUCTIONS TO VISIBILITY.

WYZ001-230400-
YELLOWSTONE NATIONAL PARK

CITY           SKY/WX    TMP DP  RH WIND       PRES   REMARKS
LK YELLOWSTONE   N/A     60  48  64 CALM      30.48R
W YELLOWSTONE  NOT AVBL

$$
WYZ002>013-054>058-071-098>099-230400-
NORTHERN WYOMING

CITY           SKY/WX    TMP DP  RH WIND       PRES   REMARKS
JACKSON        CLEAR     66  46  48 NE5       30.33S
CODY           PTCLDY    72  46  40 N13       30.26R
GREYBULL       CLEAR     90  40  17 NW10      30.09R
WORLAND        CLEAR     83  40  21 SE3       30.10S
SHERIDAN       PTCLDY    79  55  43 N17       30.24R
BUFFALO        CLEAR     79  49  34 NW12      30.26R
GILLETTE       CLEAR     75  55  49 SE12      30.20S
HULETT         FAIR      70  59  68 MISG      30.25
NEWCASTLE      FAIR      72  50  46 MISG      30.22

$$
WYZ014>020-022>026-101>103-230400-
CENTRAL WYOMING

CITY           SKY/WX    TMP DP  RH WIND       PRES   REMARKS
BIG PINEY      CLEAR     71  28  20 N7        30.38S
PINEDALE       CLEAR     72  34  25 CALM      30.40S
DUBOIS         FAIR      68  30  24 W12       30.39S
LANDER         CLEAR     81  31  16 W8        30.23R
RIVERTON       CLEAR     82  37  20 NE5       30.24S
CASPER         CLEAR     80  47  31 E8        30.23R
DOUGLAS        CLEAR     75  53  46 E8        30.23S

$$
WYZ021-027>030-104>119-230400-
SOUTHERN WYOMING

CITY           SKY/WX    TMP DP  RH WIND       PRES   REMARKS
EVANSTON       CLEAR     80  31  16 NW3       30.36S
KEMMERER       CLEAR    N/A N/A N/A N8        30.38F
ROCK SPRINGS   CLEAR     81  24  12 E3        30.34S
DIXON          FAIR      74  25  15 E8        30.36R
RAWLINS        CLEAR     74  23  15 NE7       30.36R
SARATOGA       FAIR      73  23  15 CALM      30.39S
LARAMIE        CLEAR     70  50  49 SE10      30.43R
CHEYENNE       PTCLDY    76  54  46 S8        30.36S
TORRINGTON     PTCLDY    80  57  45 E15       30.18R
PINE BLUFFS    FAIR      79  54  41 SE9G16    30.29S

$$



USA.gov is the U.S. government's official web portal to all federal, state and local government web resources and services.